Location: Unspecified
(51.9833°N, 0.0000°E)
Time: 20:39:28
(UTC+00:00)

SO-50 - Visible Passes

Search period start: 04 April 2026 00:00
Search period end: 14 April 2026 00:00
Orbit: 568 x 673 km, 64.6° (Epoch: 29 March)

Date Brightness Start Highest point End Pass type
(mag) Time Alt. Az. Time Alt. Az. Time Alt. Az.
4 Apr ? 19:16:14 10° NW 19:20:48 41° NE 19:25:19 10° ESE visible
4 Apr ? 20:56:16 10° NW 21:00:54 49° SW 21:02:33 34° S visible
5 Apr ? 19:33:51 10° NW 19:38:39 62° NE 19:42:50 13° ESE visible
5 Apr ? 21:14:16 10° WNW 21:18:20 28° WSW 21:20:00 22° SSW visible
6 Apr ? 19:51:31 10° NW 19:56:20 82° SW 20:00:20 15° SE visible
6 Apr ? 21:32:46 10° WNW 21:35:36 16° WSW 21:37:30 13° SW visible
7 Apr ? 20:09:17 10° NW 20:13:54 47° WSW 20:17:54 13° SSE visible
8 Apr ? 20:27:16 10° WNW 20:31:18 27° WSW 20:35:16 10° S visible
9 Apr ? 20:45:49 10° WNW 20:48:33 15° WSW 20:51:16 10° SW visible
10 Apr ? 19:22:15 10° NW 19:26:51 46° WSW 19:31:22 10° SSE visible
11 Apr ? 19:40:15 10° WNW 19:44:15 27° WSW 19:48:10 10° S visible
12 Apr ? 19:58:49 10° WNW 20:01:29 15° WSW 20:04:07 10° SW visible
